Location: Puketoi
(40.5833°S, 176.0167°E)
Time: 15:28:22
(UTC+00:00)

Cosmos 2142 Rocket - Pass Details

Date: 08 February 2023
Orbit: 951 x 1005 km, 83.0° (Epoch: 22 March)

Event Time Altitude Azimuth Distance (km) Brightness Sun altitude
Rises 16:53:37 0° 348° (NNW) 3,625 7.1 -7.6°
Reaches altitude 10° 16:56:07 10° 346° (NNW) 2,683 6.4 -7.2°
Maximum altitude 17:02:14 71° 262° (W) 1,014 4.5 -6.1°
Drops below altitude 10° 17:08:25 10° 177° (S) 2,713 7.2 -5.1°
Sets 17:10:58 0° 174° (S) 3,668 8.0 -4.6°
